• In Czech Republic
  • List of Countries
  • For 7 days
  • Water Temperature
  • Satellite Maps
  • Weather Map
  • Weather Widgets
  • user-avatar
    Login

    Hourly Weather Indianapolis

    Today, 17 August, Friday

    Time Temperature Precipitation Wind Pressure Humidity
    00:00 +24°C° 0.4 mm 2 mps 741 mmHg 97%
    01:00 +24°C° 0 mm 2 mps 741 mmHg 97%
    02:00 +24°C° 0 mm 2 mps 740 mmHg 97%
    03:00 +24°C° 0 mm 2 mps 740 mmHg 98%
    04:00 +24°C° 1.9 mm 2 mps 741 mmHg 98%
    05:00 +24°C° 1.9 mm 2 mps 741 mmHg 98%
    06:00 +24°C° 1.9 mm 2 mps 741 mmHg 98%
    07:00 +25°C° 0.5 mm 2 mps 741 mmHg 96%
    08:00 +25°C° 0.5 mm 2 mps 741 mmHg 94%
    09:00 +26°C° 0.5 mm 2 mps 741 mmHg 92%
    10:00 +27°C° 1.4 mm 3 mps 741 mmHg 88%
    11:00 +28°C° 1.4 mm 3 mps 741 mmHg 84%
    12:00 +29°C° 1.4 mm 3 mps 741 mmHg 80%
    13:00 +29°C° 1.1 mm 4 mps 740 mmHg 80%
    14:00 +29°C° 1.1 mm 4 mps 740 mmHg 80%
    15:00 +29°C° 1.1 mm 4 mps 740 mmHg 80%
    16:00 +28°C° 0.5 mm 3 mps 740 mmHg 84%
    17:00 +27°C° 0.5 mm 3 mps 740 mmHg 87%
    18:00 +26°C° 0.5 mm 2 mps 740 mmHg 90%
    19:00 +26°C° 0.3 mm 2 mps 740 mmHg 91%
    20:00 +25°C° 0.3 mm 2 mps 740 mmHg 92%
    21:00 +24°C° 0.3 mm 1 mps 740 mmHg 94%
    22:00 +24°C° 0.1 mm 1 mps 740 mmHg 94%
    23:00 +23°C° 0.1 mm 1 mps 740 mmHg 94%

    Tomorrow, 18 August, Saturday

    Time Temperature Precipitation Wind Pressure Humidity
    00:00 +23°C° 0.1 mm 1 mps 740 mmHg 95%
    01:00 +22°C° 0.1 mm 1 mps 740 mmHg 95%
    02:00 +22°C° 0.1 mm 1 mps 740 mmHg 96%
    03:00 +22°C° 0.1 mm 1 mps 739 mmHg 96%
    04:00 +22°C° 0 mm 1 mps 740 mmHg 96%
    05:00 +22°C° 0 mm 1 mps 740 mmHg 96%
    06:00 +22°C° 0 mm 1 mps 740 mmHg 97%
    07:00 +24°C° 0 mm 1 mps 740 mmHg 93%
    08:00 +25°C° 0 mm 2 mps 740 mmHg 90%
    09:00 +26°C° 0 mm 2 mps 741 mmHg 87%
    10:00 +27°C° 0.1 mm 2 mps 741 mmHg 84%
    11:00 +28°C° 0.1 mm 3 mps 740 mmHg 81%
    12:00 +29°C° 0.1 mm 3 mps 740 mmHg 79%
    13:00 +29°C° 0.1 mm 4 mps 740 mmHg 78%
    14:00 +29°C° 0.1 mm 4 mps 740 mmHg 78%
    15:00 +29°C° 0.1 mm 5 mps 739 mmHg 77%
    16:00 +28°C° 0 mm 4 mps 739 mmHg 81%
    17:00 +27°C° 0 mm 4 mps 739 mmHg 84%
    18:00 +26°C° 0 mm 3 mps 739 mmHg 87%
    19:00 +25°C° 0 mm 3 mps 740 mmHg 89%
    20:00 +24°C° 0 mm 3 mps 740 mmHg 91%
    21:00 +23°C° 0 mm 2 mps 740 mmHg 93%
    22:00 +21°C° 0 mm 2 mps 740 mmHg 92%
    23:00 +21°C° 0 mm 2 mps 740 mmHg 92%

    Day after tomorrow, 19 August, Sunday

    Time Temperature Precipitation Wind Pressure Humidity
    00:00 +20°C° 0 mm 2 mps 740 mmHg 92%
    01:00 +20°C° 0 mm 2 mps 740 mmHg 92%
    02:00 +19°C° 0 mm 2 mps 740 mmHg 93%
    03:00 +19°C° 0 mm 2 mps 740 mmHg 93%
    04:00 +19°C° 0 mm 2 mps 740 mmHg 94%
    05:00 +19°C° 0 mm 2 mps 741 mmHg 94%
    06:00 +19°C° 0 mm 2 mps 741 mmHg 95%
    07:00 +21°C° 0 mm 3 mps 741 mmHg 90%
    08:00 +24°C° 0 mm 3 mps 742 mmHg 86%
    09:00 +25°C° 0 mm 3 mps 742 mmHg 82%
    10:00 +26°C° 0 mm 3 mps 742 mmHg 79%
    11:00 +27°C° 0 mm 3 mps 742 mmHg 76%
    12:00 +28°C° 0 mm 3 mps 742 mmHg 73%
    13:00 +28°C° 0 mm 3 mps 741 mmHg 73%
    14:00 +28°C° 0 mm 3 mps 741 mmHg 72%
    15:00 +29°C° 0 mm 3 mps 741 mmHg 72%
    16:00 +28°C° 0 mm 3 mps 741 mmHg 76%
    17:00 +27°C° 0 mm 3 mps 741 mmHg 81%
    18:00 +26°C° 0 mm 2 mps 741 mmHg 85%
    19:00 +25°C° 0 mm 2 mps 741 mmHg 87%
    20:00 +22°C° 0 mm 3 mps 742 mmHg 89%
    21:00 +21°C° 0 mm 3 mps 742 mmHg 92%
    22:00 +21°C° 0 mm 3 mps 742 mmHg 93%
    23:00 +21°C° 0 mm 3 mps 742 mmHg 93%

    20 August, Monday

    Time Temperature Precipitation Wind Pressure Humidity
    00:00 +20°C° 0 mm 3 mps 742 mmHg 94%
    01:00 +20°C° 0 mm 2 mps 742 mmHg 94%
    02:00 +20°C° 0 mm 2 mps 741 mmHg 94%
    03:00 +19°C° 0 mm 2 mps 741 mmHg 94%
    04:00 +19°C° 0 mm 2 mps 741 mmHg 94%
    05:00 +19°C° 0 mm 2 mps 742 mmHg 94%
    06:00 +20°C° 0 mm 2 mps 742 mmHg 94%
    07:00 +21°C° 0 mm 2 mps 742 mmHg 90%
    08:00 +24°C° 0 mm 2 mps 742 mmHg 87%
    09:00 +26°C° 0 mm 3 mps 742 mmHg 84%
    10:00 +27°C° 0 mm 3 mps 742 mmHg 80%
    11:00 +28°C° 0 mm 3 mps 742 mmHg 77%
    12:00 +29°C° 0 mm 2 mps 741 mmHg 74%
    13:00 +29°C° 0.1 mm 2 mps 741 mmHg 75%
    14:00 +29°C° 0.1 mm 2 mps 740 mmHg 76%
    15:00 +29°C° 0.1 mm 2 mps 740 mmHg 77%
    16:00 +27°C° 0.9 mm 2 mps 740 mmHg 82%
    17:00 +26°C° 0.9 mm 2 mps 740 mmHg 86%
    18:00 +25°C° 0.9 mm 2 mps 740 mmHg 91%
    19:00 +24°C° 1.6 mm 1 mps 740 mmHg 91%
    20:00 +24°C° 1.6 mm 1 mps 740 mmHg 92%
    21:00 +24°C° 1.6 mm 1 mps 740 mmHg 93%
    22:00 +23°C° 1.7 mm 1 mps 739 mmHg 94%
    23:00 +23°C° 1.7 mm 1 mps 739 mmHg 95%

    21 August, Tuesday

    Time Temperature Precipitation Wind Pressure Humidity
    00:00 +23°C° 1.7 mm 1 mps 738 mmHg 96%
    01:00 +23°C° 0.3 mm 1 mps 738 mmHg 97%
    02:00 +23°C° 0.3 mm 1 mps 738 mmHg 97%
    03:00 +21°C° 0.3 mm 2 mps 737 mmHg 97%
    04:00 +21°C° 0.7 mm 2 mps 738 mmHg 97%
    05:00 +21°C° 0.7 mm 2 mps 738 mmHg 97%
    06:00 +21°C° 0.7 mm 2 mps 738 mmHg 97%
    07:00 +23°C° 0.2 mm 2 mps 738 mmHg 96%
    08:00 +23°C° 0.2 mm 2 mps 738 mmHg 94%
    09:00 +24°C° 0.2 mm 2 mps 739 mmHg 92%
    10:00 +24°C° 0.4 mm 3 mps 739 mmHg 90%
    11:00 +25°C° 0.4 mm 4 mps 738 mmHg 88%
    12:00 +25°C° 0.4 mm 4 mps 738 mmHg 87%
    13:00 +25°C° 0.2 mm 5 mps 738 mmHg 84%
    14:00 +26°C° 0.2 mm 5 mps 738 mmHg 82%
    15:00 +26°C° 0.2 mm 5 mps 738 mmHg 80%
    16:00 +25°C° 0 mm 4 mps 738 mmHg 83%
    17:00 +24°C° 0 mm 3 mps 739 mmHg 85%
    18:00 +22°C° 0 mm 3 mps 739 mmHg 88%
    19:00 +21°C° 0 mm 3 mps 739 mmHg 90%
    20:00 +20°C° 0 mm 3 mps 740 mmHg 92%
    21:00 +19°C° 0 mm 3 mps 740 mmHg 95%
    22:00 +19°C° 0 mm 3 mps 740 mmHg 95%
    23:00 +19°C° 0 mm 3 mps 740 mmHg 96%

    22 August, Wednesday

    Time Temperature Precipitation Wind Pressure Humidity
    00:00 +18°C° 0 mm 3 mps 740 mmHg 97%
    01:00 +18°C° 0 mm 3 mps 740 mmHg 97%
    02:00 +18°C° 0 mm 2 mps 740 mmHg 97%
    03:00 +18°C° 0 mm 2 mps 740 mmHg 97%
    04:00 +17°C° 0 mm 2 mps 740 mmHg 97%
    05:00 +17°C° 0 mm 3 mps 740 mmHg 97%
    06:00 +17°C° 0 mm 3 mps 741 mmHg 96%
    07:00 +19°C° 0 mm 3 mps 741 mmHg 92%
    08:00 +20°C° 0 mm 3 mps 741 mmHg 87%
    09:00 +22°C° 0 mm 3 mps 742 mmHg 83%
    10:00 +22°C° 0.1 mm 4 mps 741 mmHg 80%
    11:00 +23°C° 0.1 mm 4 mps 741 mmHg 78%
    12:00 +25°C° 0.1 mm 4 mps 741 mmHg 75%
    13:00 +25°C° 0.1 mm 5 mps 741 mmHg 75%
    14:00 +25°C° 0.1 mm 5 mps 741 mmHg 75%
    15:00 +25°C° 0.1 mm 5 mps 741 mmHg 74%
    16:00 +23°C° 0 mm 4 mps 741 mmHg 78%
    17:00 +22°C° 0 mm 4 mps 741 mmHg 81%
    18:00 +21°C° 0 mm 3 mps 741 mmHg 85%
    19:00 +20°C° 0 mm 3 mps 742 mmHg 87%
    20:00 +19°C° 0 mm 2 mps 742 mmHg 88%
    21:00 +17°C° 0 mm 2 mps 743 mmHg 90%
    22:00 +17°C° 0 mm 2 mps 743 mmHg 91%
    23:00 +16°C° 0 mm 2 mps 743 mmHg 91%
    Show more